Vorticity
-0 18 17 3 4 1 10 14 0 18 11 14 21 -3 2 28 23 -39 55 -10 12 18 3 7 9 6 6 5 5 4 5 6 6 6 6 7 8 9 7 4 4 4 5 5
18 11 16 16 2 4 6 20 7 5 8 11 12 26 -2 8 21 26 9 -1 0 3 10 10 7 9 5 5 6 6 7 7 6 6 5 5 3 4 4 6 5 5 5 5
1 5 5 6 11 8 8 5 7 19 -8 0 14 13 16 12 -1 13 33 50 -22 4 10 16 15 16 15 9 4 7 5 5 6 6 5 4 5 8 7 8 7 5 5 5
5 11 9 6 6 10 12 7 6 4 17 14 2 0 22 9 19 -3 17 17 10 -15 1 5 -7 -7 6 15 16 7 3 0 -0 4 12 6 3 3 12 8 -1 5 6 6
12 18 20 13 9 9 4 7 5 8 5 15 9 12 19 38 10 17 5 10 4 8 2 -15 16 5 10 13 14 2 1 -0 0 5 4 2 4 5 -3 6 7 8 8 7
12 9 8 8 6 10 11 5 8 9 9 16 19 -6 15 27 28 21 21 3 7 12 13 -20 -18 9 7 4 14 2 -1 -9 -0 5 4 2 -4 -2 -0 6 13 10 7 6
29 5 7 2 12 13 7 14 11 16 12 2 4 30 -25 -11 -13 22 14 26 27 3 11 22 -13 -1 -11 -1 26 3 -13 9 13 3 -0 5 12 6 2 11 10 9 8 8
2 8 4 -11 11 5 6 8 0 9 7 -2 10 13 -2 20 16 25 2 12 9 28 7 3 18 -8 18 15 -37 -20 4 24 7 2 4 3 0 7 5 8 10 9 8 8
12 4 10 23 16 11 1 12 10 7 11 11 6 -1 9 28 30 3 2 2 12 17 50 7 11 12 4 -21 -6 0 2 1 -1 8 7 7 6 5 4 10 11 12 9 7
-9 7 4 -1 9 22 17 -1 9 15 9 9 21 19 -14 21 -8 31 25 6 2 -1 6 21 27 19 22 23 12 14 2 4 10 13 6 4 3 5 10 13 13 10 8 9
18 16 -20 21 14 5 10 19 8 4 4 3 5 12 -5 -18 2 36 51 28 3 33 1 8 23 15 18 9 2 10 13 12 11 6 5 5 7 9 11 14 11 8 8 9
15 18 -13 26 24 29 22 10 6 2 16 -2 -1 -4 15 21 17 -9 -15 -8 9 29 28 21 12 26 11 19 19 9 12 14 12 5 4 6 8 11 15 12 9 9 9 9
7 2 15 13 1 -3 3 0 3 13 13 4 -10 -18 -24 -0 -23 -23 4 5 5 7 9 27 14 23 27 23 17 12 13 10 5 9 7 8 12 14 13 9 9 9 9 8
23 11 -9 -26 -11 -2 -0 15 11 8 11 2 -19 -14 11 10 11 21 15 7 3 14 17 15 20 12 13 16 15 12 10 10 8 8 9 14 15 12 9 8 8 8 8 7
17 4 4 6 3 17 7 8 19 17 24 -2 -7 -12 1 8 15 17 19 15 14 10 7 16 10 17 17 10 9 8 8 8 9 13 16 13 10 7 7 8 9 8 10 11
-1 2 -3 4 12 24 6 18 34 39 41 12 16 13 39 30 21 17 12 10 8 10 4 4 14 10 13 15 14 15 15 16 16 14 10 7 7 8 9 9 10 11 9 6
7 9 3 -1 9 1 51 1 -17 16 2 -27 26 18 7 10 12 18 21 16 13 13 14 11 2 12 12 11 10 10 10 10 9 7 7 8 9 10 10 10 9 6 6 3
11 15 24 8 28 21 -6 -9 44 22 40 37 -8 17 21 26 21 20 17 14 15 18 15 12 12 8 4 5 6 7 8 9 9 10 9 10 10 11 10 7 7 5 4 4
20 27 -0 -3 17 -18 19 26 -17 7 -13 -6 29 16 0 1 9 11 14 12 20 20 21 18 14 6 6 7 11 13 12 12 11 10 10 11 10 9 8 5 5 5 5 9
8 21 -2 18 4 -6 2 -12 -0 17 13 47 22 16 -1 -11 -5 -4 -8 -0 4 15 11 19 15 12 11 11 12 13 13 11 11 13 12 10 6 6 6 7 3 6 9 10
15 13 -2 9 -13 17 11 23 14 29 4 -0 -16 -16 3 8 15 3 -0 8 14 8 15 13 9 13 8 12 12 10 12 14 13 10 10 8 6 4 6 3 6 11 9 7
8 2 2 44 17 9 50 21 -1 -9 -9 -17 -20 5 -2 8 1 14 13 7 16 14 15 15 18 14 13 11 12 13 14 12 11 9 6 4 4 7 5 5 9 6 7 9
15 -9 -6 -15 -39 -33 -37 -22 -5 -1 -1 -1 4 -9 3 8 8 -4 12 6 21 20 18 11 13 11 11 13 15 14 13 11 7 6 4 5 5 9 3 7 7 9 10 6
19 16 5 8 21 21 26 17 0 -4 12 19 7 0 4 12 17 23 14 18 17 20 17 9 11 12 11 14 16 13 7 6 5 1 10 6 7 2 10 8 12 7 7 10
11 17 2 7 5 -0 8 34 32 24 24 23 25 30 -0 15 10 -0 6 12 6 16 20 10 12 13 15 19 11 7 6 0 9 13 8 7 1 8 11 10 5 9 11 8
11 19 28 4 17 26 25 17 22 16 21 12 11 15 22 5 -1 -3 19 3 19 12 16 15 12 15 16 8 6 2 6 15 6 9 10 3 6 11 7 5 9 9 6 5
Height
3084 3083 3082 3083 3083 3084 3084 3085 3086 3087 3088 3090 3091 3094 3097 3100 3102 3100 3109 3111 3115 3120 3124 3125 3129 3133 3135 3137 3139 3142 3145 3148 3151 3153 3154 3156 3157 3160 3159 3160 3159 3159 3160 3159
3087 3084 3084 3084 3085 3085 3085 3085 3087 3087 3088 3090 3090 3090 3093 3095 3095 3097 3106 3105 3111 3115 3121 3123 3126 3129 3133 3136 3138 3139 3142 3145 3147 3149 3150 3152 3154 3155 3155 3157 3156 3156 3156 3156
3088 3088 3087 3086 3086 3087 3087 3087 3087 3088 3088 3088 3089 3088 3088 3090 3092 3093 3096 3105 3106 3109 3117 3120 3122 3126 3130 3133 3134 3137 3138 3141 3143 3145 3146 3147 3149 3150 3152 3153 3153 3151 3151 3151
3090 3089 3088 3087 3087 3087 3087 3088 3087 3088 3088 3088 3088 3086 3085 3087 3090 3091 3097 3100 3104 3108 3111 3115 3119 3123 3126 3129 3132 3134 3134 3136 3138 3140 3142 3143 3144 3147 3148 3147 3146 3147 3147 3147
3093 3089 3088 3088 3088 3088 3088 3087 3087 3087 3087 3087 3087 3088 3080 3083 3085 3088 3091 3093 3099 3102 3107 3112 3113 3117 3121 3124 3126 3129 3131 3132 3134 3135 3136 3137 3140 3141 3141 3142 3142 3142 3142 3141
3093 3091 3090 3089 3089 3088 3087 3087 3087 3086 3086 3086 3085 3086 3076 3077 3080 3084 3089 3093 3096 3100 3101 3105 3110 3112 3113 3117 3120 3124 3127 3128 3129 3130 3130 3130 3133 3135 3136 3137 3137 3136 3135 3135
3094 3093 3091 3091 3089 3088 3088 3087 3087 3087 3086 3086 3084 3084 3073 3076 3078 3079 3082 3083 3086 3090 3093 3096 3101 3105 3108 3113 3116 3118 3121 3123 3125 3125 3124 3126 3127 3128 3130 3129 3129 3129 3129 3129
3095 3094 3093 3091 3090 3089 3088 3089 3088 3089 3088 3085 3082 3077 3074 3073 3073 3075 3077 3078 3080 3082 3084 3088 3093 3097 3102 3106 3109 3112 3115 3114 3118 3118 3119 3121 3122 3122 3122 3122 3123 3123 3122 3122
3098 3095 3093 3091 3090 3090 3087 3088 3088 3087 3084 3084 3078 3073 3073 3073 3072 3072 3072 3073 3074 3075 3076 3081 3085 3089 3094 3098 3101 3103 3106 3108 3109 3111 3111 3114 3114 3114 3114 3115 3116 3116 3116 3116
3098 3095 3092 3091 3090 3088 3087 3088 3087 3087 3085 3082 3072 3071 3069 3070 3069 3066 3065 3066 3068 3069 3071 3073 3077 3081 3086 3090 3093 3095 3098 3100 3102 3103 3104 3106 3106 3106 3107 3108 3109 3109 3110 3109
3097 3095 3093 3089 3088 3087 3087 3085 3085 3085 3083 3081 3077 3068 3066 3066 3066 3062 3060 3061 3063 3062 3063 3064 3066 3070 3075 3079 3083 3086 3089 3090 3093 3096 3097 3098 3098 3099 3100 3101 3102 3103 3103 3103
3097 3093 3089 3087 3085 3085 3084 3084 3083 3083 3080 3077 3074 3060 3062 3063 3062 3061 3060 3060 3060 3058 3056 3056 3058 3061 3065 3068 3072 3076 3079 3082 3085 3088 3090 3091 3091 3092 3093 3095 3096 3096 3096 3097
3096 3092 3089 3085 3086 3083 3081 3081 3080 3078 3076 3071 3073 3057 3057 3058 3058 3058 3058 3056 3056 3054 3053 3053 3053 3053 3055 3059 3064 3068 3071 3075 3079 3081 3083 3084 3084 3085 3087 3089 3090 3090 3090 3090
3093 3089 3089 3086 3081 3079 3076 3074 3073 3072 3070 3063 3055 3051 3050 3054 3054 3054 3053 3052 3051 3051 3050 3049 3050 3051 3052 3055 3059 3063 3066 3069 3072 3074 3075 3076 3077 3079 3081 3082 3083 3083 3084 3085
3090 3084 3082 3078 3076 3074 3068 3064 3064 3061 3059 3058 3047 3046 3043 3047 3046 3045 3045 3045 3045 3046 3046 3046 3046 3047 3049 3052 3054 3057 3059 3061 3064 3066 3067 3069 3071 3073 3075 3076 3077 3077 3078 3078
3083 3079 3075 3069 3069 3066 3060 3057 3055 3051 3048 3043 3044 3036 3042 3039 3037 3036 3037 3038 3039 3039 3041 3042 3042 3043 3044 3046 3048 3050 3053 3055 3057 3060 3062 3064 3065 3067 3069 3070 3070 3071 3071 3071
3076 3073 3071 3063 3063 3061 3055 3049 3048 3044 3041 3040 3038 3036 3035 3034 3033 3031 3030 3030 3032 3033 3034 3036 3037 3038 3039 3041 3043 3045 3047 3049 3051 3054 3056 3057 3059 3061 3062 3063 3064 3064 3065 3065
3068 3066 3067 3060 3059 3058 3048 3045 3042 3039 3035 3035 3034 3032 3031 3029 3028 3027 3026 3026 3026 3026 3026 3028 3030 3032 3034 3036 3037 3039 3041 3043 3045 3047 3049 3051 3053 3055 3056 3057 3058 3058 3058 3056
3061 3061 3059 3057 3052 3047 3042 3040 3039 3036 3034 3032 3029 3029 3029 3028 3027 3025 3024 3024 3023 3022 3022 3023 3024 3025 3027 3029 3031 3033 3035 3037 3039 3041 3043 3045 3047 3048 3049 3050 3051 3051 3050 3049
3056 3055 3056 3051 3048 3041 3038 3037 3034 3032 3026 3025 3026 3026 3027 3026 3024 3023 3022 3021 3020 3019 3019 3018 3019 3021 3022 3024 3025 3027 3029 3031 3033 3035 3037 3039 3041 3041 3043 3043 3044 3044 3043 3041
3049 3047 3045 3043 3039 3031 3031 3031 3030 3031 3029 3024 3024 3023 3023 3022 3021 3019 3017 3016 3015 3014 3014 3014 3014 3015 3016 3017 3019 3020 3022 3024 3026 3028 3031 3033 3035 3036 3037 3038 3038 3037 3036 3034
3040 3040 3036 3034 3035 3026 3025 3026 3027 3027 3024 3021 3019 3018 3016 3015 3013 3012 3011 3010 3008 3007 3007 3007 3007 3009 3010 3011 3012 3014 3016 3018 3021 3023 3025 3027 3029 3030 3031 3030 3030 3029 3028 3026
3026 3026 3027 3026 3019 3021 3020 3019 3019 3018 3017 3015 3013 3012 3009 3006 3006 3005 3004 3002 3001 3000 3000 3000 3001 3002 3003 3004 3006 3008 3010 3013 3015 3017 3019 3020 3022 3023 3023 3023 3022 3021 3020 3018
3013 3017 3012 3015 3008 3012 3013 3011 3009 3008 3007 3006 3003 3002 2999 2997 2997 2996 2995 2994 2994 2993 2993 2994 2994 2995 2997 2998 3000 3002 3005 3007 3008 3010 3012 3014 3015 3016 3017 3017 3016 3014 3012 3009
3003 3003 3000 2994 3000 3001 2999 2999 2998 2996 2994 2993 2992 2990 2988 2987 2986 2987 2987 2986 2986 2986 2986 2987 2988 2989 2990 2992 2994 2996 2998 2999 3001 3004 3006 3007 3009 3010 3010 3009 3008 3006 3004 3001
2990 2988 2987 2979 2993 2990 2981 2986 2985 2982 2981 2980 2978 2976 2977 2977 2977 2978 2978 2978 2978 2978 2979 2979 2980 2982 2983 2985 2987 2988 2990 2992 2995 2997 2999 3001 3002 3003 3002 3001 2999 2997 2995 2992